Regional Weather Roundup
Issued by NWS

Home | Current Version | Previous Version | Graphics & Text | Print | Product List | Glossary On
Versions: 1 2 3 4 5 6 7 8 9 10 11 12 13 14 15 16 17 18 19 20 21 22 23 24 25 26 27 28 29 30 31 32 33 34 35 36 37 38 39 40 41 42 43 44 45 46 47 48 49 50
000
ASUS45 KBOU 171607
RWRCO

WEATHER ROUNDUP FOR COLORADO
NATIONAL WEATHER SERVICE DENVER/BOULDER CO
1000 AM MDT WED SEP 17 2014

NOTE: "FAIR" INDICATES FEW OR NO CLOUDS BELOW 12000 FEET WITH NO
SIGNIFICANT WEATHER AND/OR OBSTRUCTIONS TO VISIBILITY.

COZ001>005-013-030-031-171700-
...NORTHWEST COLORADO...

CITY           SKY/WX    TMP DP  RH WIND       PRES   REMARKS
CRAIG          MOSUNNY   66  41  40 VRB5      30.20F
HAYDEN         MOSUNNY   61  36  39 E12       30.22F
MEEKER         SUNNY     65  40  39 CALM      30.21F
MOUNT WERNER   NOT AVBL
STEAMBOAT SPGS MOSUNNY   57  39  50 CALM      30.26S
WALDEN         SUNNY     55  34  44 CALM      30.33F
$$

COZ006>008-011-171700-
...WEST CENTRAL VALLEYS...

CITY           SKY/WX    TMP DP  RH WIND       PRES   REMARKS
GRAND JUNCTION SUNNY     70  42  36 SE13      30.12S
MONTROSE       PTSUNNY   68  43  40 CALM      30.19F
EAGLE          MOSUNNY   54  39  58 CALM      30.31F
RIFLE          SUNNY     62  42  47 CALM      30.19S
DELTA          PTSUNNY   69  41  36 CALM      30.16F
NUCLA          PTSUNNY   66  43  42 CALM      30.23S
$$

COZ017>023-064>068-171700-
...SOUTHWEST COLORADO...

CITY           SKY/WX    TMP DP  RH WIND       PRES   REMARKS
DURANGO        PTSUNNY   64  48  56 CALM      30.24S
CORTEZ         SUNNY     65  50  58 CALM      30.20S
PAGOSA SPRINGS PTSUNNY   59  43  56 CALM      30.31R
TELLURIDE      NOT AVBL
WOLF CREEK PAS CLOUDY    46  36  66 NE10      30.57S
$$

COZ009-010-012-014-032>034-037-058>063-171700-
...CENTRAL COLORADO...

CITY           SKY/WX    TMP DP  RH WIND       PRES   REMARKS
ASPEN          MOSUNNY   61  37  41 CALM      30.30F
BUENA VISTA    SUNNY     63  34  33 CALM      30.33F
COPPER MTN     MOSUNNY   54  27  35 W10G16    30.60S
BERTHOUD PASS  FAIR      46  45  93 N7        30.64S
COTTONWOOD PAS SUNNY     61  32  33 SE7       30.45S
GUNNISON       MOSUNNY   54  37  54 CALM      30.37F
KREMMLING      MOSUNNY   52  34  50 CALM      30.35F
LEADVILLE      SUNNY     57  33  40 NW3       30.45S
MONARCH PASS   MOSUNNY   52  34  50 E3        30.69S
SALIDA         SUNNY     64  35  34 CALM      30.38F
SUNLIGHT       MOSUNNY   59  32  36 CALM      30.53S
WILKERSON PASS NOT AVBL
$$

COZ069>075-171700-
...SAN LUIS VALLEY/SANGRE DE CRISTO MOUNTAINS...

CITY           SKY/WX    TMP DP  RH WIND       PRES   REMARKS
ALAMOSA        PTSUNNY   63  47  55 VRB5      30.30S
LA VETA PASS   NOT AVBL
SAGUACHE       PTSUNNY   63  37  39 NW14      30.32F
$$

COZ035-036-038>040-171700-
...NORTHERN COLORADO FRONT RANGE...

CITY           SKY/WX    TMP DP  RH WIND       PRES   REMARKS
DENVER INTL AP PTSUNNY   76  39  26 SW7       30.11S
DMNS CITY PARK   N/A     76  43  30 S3        30.11S
AURORA         PTSUNNY   74  41  30 SW6       30.14R
FRONT RANGE AP NOT AVBL
ERIE MUNI ARPT SUNNY     75  41  29 SW3       30.09S
BOULDER MUN AP SUNNY     72  41  33 CALM      30.10S
CENTENNIAL     MOSUNNY   76  40  27 W7        30.15R
BROOMFIELD     PTSUNNY   73  41  31 VRB5      30.13S
FORT COLLINS   MOSUNNY   73  43  33 SW5       30.09F
LONGMONT       MOSUNNY   74  47  38 CALM      30.10S
$$

COZ041-046-047-076>085-087-088-171700-
...PIKES PEAK/PALMER DIVIDE AND SOUTHERN FOOTHILLS...

CITY           SKY/WX    TMP DP  RH WIND       PRES   REMARKS
COLO. SPRINGS  PTSUNNY   80  36  20 CALM      30.17S
A. F. ACADEMY  SUNNY     77  38  24 N7        30.18F
ELLICOTT       NOT AVBL
FALCON         SUNNY     78  37  23 CALM      30.22S
FORT CARSON    SUNNY     76  42  29 NW5       30.14S
LIMON          SUNNY     79  40  24 NW9       30.11S
MONUMENT HILL  SUNNY     73  36  25 NW8       30.23R
TRINIDAD       CLOUDY    70  45  40 W12       30.15R
$$

COZ042>045-048>051-090-091-171700-
...NORTHEAST COLORADO...

CITY           SKY/WX    TMP DP  RH WIND       PRES   REMARKS
GREELEY ARPT   MOSUNNY   70  45  40 W3        30.08S
AKRON          PTSUNNY   66  46  48 W18       30.04R
BURLINGTON     SUNNY     81  51  35 S6        30.02S
WRAY           SUNNY     75  52  44 CALM      29.99F
STERLING       PTSUNNY   70  54  56 S6        30.01S
HOLYOKE        SUNNY     73  52  46 N3        30.00R
FORT MORGAN    PTSUNNY   69  45  41 W9        30.05F
$$

COZ086-089-092>099-171700-
...SOUTHEAST COLORADO...

CITY           SKY/WX    TMP DP  RH WIND       PRES   REMARKS
PUEBLO         SUNNY     75  40  28 W7        30.07S
LA JUNTA       MOSUNNY   74  47  38 SW8       30.04S
LAMAR          MOSUNNY   74  48  39 SW8       30.01R
SPRINGFIELD      N/A     76  50  40 CALM      30.04S
$$


USA.gov is the U.S. government's official web portal to all federal, state and local government web resources and services.